Weather History for Pascagoula, MS

Change the Weather History Date:

Monday, January 16, 2012

  Actual Average Record
Temperature  
Mean Temperature 54 °F -  
Max Temperature 72 °F 58 °F 76 °F (1950)
Min Temperature 35 °F 39 °F 24 °F (1972)
Degree Days  
Heating Degree Days 12    
Growing Degree Days 4 (Base 50)    
Moisture  
Dew Point 48 °F    
Average Humidity 77    
Maximum Humidity 93    
Minimum Humidity 48    
Precipitation  
Precipitation 0.00 in - - ()
Sea Level Pressure  
Sea Level Pressure 30.34 in    
Wind  
Wind Speed 4 mph (SSE)    
Max Wind Speed 16 mph    
Max Gust Speed 22 mph    
Visibility 8 miles    
Events      
Averages and records for this station are not official NWS values.
T = Trace of Precipitation, MM = Missing Value Source: NWS Daily Summary

Daily Weather History Graph

Daily Weather History Graph

Search for Another Location

Airport:

Trip Planner

Search our weather history database for the weather conditions in past years. The results will help you decide how hot, cold, wet, or windy it might be!

Date:

Astronomy

Jan. 16, 2012 Rise Set
Actual Time 6:51 AM CST 5:16 PM CST
Civil Twilight 6:25 AM CST 5:42 PM CST
Nautical Twilight 5:56 AM CST 6:11 PM CST
Astronomical Twilight 5:27 AM CST 6:40 PM CST
Moon 12:08 AM CST (1/16) 11:23 AM CST (1/16)
Length of Visible Light 11h 16m
Length of Day
10h 24m
Last Quarter, 46% of the Moon is Illuminated
Jan 16
Last Quarter
Jan 23
New
Jan 30
First Quarter
Feb 7
Full
Feb 14
Last Quarter

Hourly Weather History & Observations

Time (CST) Temp. Windchill Dew Point Humidity Pressure Visibility Wind Dir Wind Speed Gust Speed Precip Events Conditions
12:03 AM 35.6 °F - 33.8 °F 93% 30.40 in 5.0 mi Calm Calm - N/A   Partly Cloudy
12:28 AM 35.6 °F - 33.8 °F 93% 30.40 in 1.8 mi Calm Calm - N/A   Clear
12:33 AM 35.6 °F 32.8 °F 33.8 °F 93% 30.40 in 3.0 mi North 3.5 mph - N/A   Clear
12:53 AM 36.0 °F - 33.1 °F 89% 30.40 in 4.0 mi Calm Calm - N/A   Clear
1:53 AM 41.0 °F - 37.9 °F 89% 30.40 in 4.0 mi Calm Calm - N/A   Clear
2:53 AM 44.1 °F - 41.0 °F 89% 30.39 in 4.0 mi Calm Calm - 0.00 in   Mostly Cloudy
3:53 AM 45.0 °F - 42.1 °F 90% 30.38 in 4.0 mi Calm Calm - N/A   Clear
4:53 AM 48.9 °F - 46.0 °F 90% 30.36 in 8.0 mi ESE 3.5 mph - N/A   Partly Cloudy
5:53 AM 50.0 °F - 46.9 °F 89% 30.36 in 10.0 mi Calm Calm - N/A   Clear
6:53 AM 48.0 °F - 45.0 °F 89% 30.38 in 6.0 mi North 3.5 mph - N/A   Clear
7:53 AM 54.0 °F - 50.0 °F 86% 30.39 in 10.0 mi Calm Calm - N/A   Clear
8:53 AM 61.0 °F - 54.0 °F 78% 30.39 in 10.0 mi SE 5.8 mph - N/A   Mostly Cloudy
9:53 AM 64.9 °F - 53.1 °F 65% 30.39 in 10.0 mi SSE 13.8 mph 20.7 mph N/A   Clear
10:53 AM 70.0 °F - 52.0 °F 53% 30.38 in 10.0 mi SSE 16.1 mph - N/A   Partly Cloudy
11:53 AM 71.1 °F - 51.1 °F 49% 30.35 in 10.0 mi South 12.7 mph - N/A   Clear
12:53 PM 72.0 °F - 51.1 °F 48% 30.32 in 10.0 mi South 12.7 mph 21.9 mph N/A   Clear
1:53 PM 70.0 °F - 52.0 °F 53% 30.30 in 10.0 mi South 13.8 mph 21.9 mph N/A   Clear
2:53 PM 70.0 °F - 53.1 °F 55% 30.29 in 10.0 mi SSE 11.5 mph 20.7 mph N/A   Clear
3:53 PM 70.0 °F - 55.0 °F 59% 30.29 in 10.0 mi SSE 15.0 mph 20.7 mph N/A   Mostly Cloudy
4:53 PM 66.0 °F - 55.9 °F 70% 30.28 in 10.0 mi SE 10.4 mph - N/A   Mostly Cloudy
5:53 PM 63.0 °F - 55.9 °F 78% 30.28 in 10.0 mi SSE 9.2 mph - N/A   Clear
6:53 PM 61.0 °F - 55.9 °F 83% 30.28 in 10.0 mi SSE 8.1 mph - N/A   Scattered Clouds
8:53 PM 62.1 °F - 57.0 °F 84% 30.27 in 10.0 mi SSE 9.2 mph - N/A   Partly Cloudy
9:53 PM 62.1 °F - 57.0 °F 84% 30.26 in 10.0 mi SSE 9.2 mph - N/A   Clear
10:53 PM 63.0 °F - 57.0 °F 81% 30.24 in 10.0 mi SSE 10.4 mph - N/A   Clear
11:53 PM 63.0 °F - 57.0 °F 81% 30.22 in 10.0 mi SSE 9.2 mph - N/A   Clear